    Orbital elements:
    2018 GL                                                  Earth MOID = 0.1432 AU
    Epoch 2019 Apr. 27.0 TT = JDT 2458600.5                 MPC
    M 198.66889              (2000.0)            P               Q
    n   0.44898381     Peri.  335.17132     -0.38884642     -0.91080611
    a   1.6890750      Node   137.33744     +0.87577371     -0.41215176
    e   0.5645536      Incl.   11.80795     +0.28603997     +0.02373090
    P   2.20           H   20.5           G   0.15           U   1
    Residuals in seconds of arc
    150821 F51  0.1-  0.0     180406 151  0.5+  1.1+    180418 G96  0.1+  0.1+
    150922 F51  0.6+  0.0     180406 587  0.2-  0.4+    180418 G96  1.3-  1.0-
    150922 F51  0.4-  0.1+    180406 151  0.0   0.8+    180418 G96  0.2-  0.1-
    150922 F51  0.0   0.1+    180406 246  0.0   0.7+    180419 I52  0.2+  0.1+
    150923 F51  0.1-  0.0     180406 246  0.7+  0.5-    180419 I52  0.4+  0.1+
    150923 F51  0.1-  0.1+    180406 246  0.3+  0.1-    180419 I52  0.2+  0.3-
    150924 F51  0.0   0.1+    180406 246  0.8+  0.1+    180419 I52  0.2+  0.1-
    150924 F51  0.3-  0.4+    180406 C47  0.3-  0.0     180419 246  0.8-  0.5+
    150924 F51  0.1+  0.0     180406 198  0.4-  0.3+    180419 246  0.3+  0.3+
    170725 F51  0.3+  0.0     180406 C47  0.3-  0.1+    180419 246  0.1-  1.2+
    170725 F51  0.1-  0.1+    180406 198  0.3-  0.1+    180419 246  0.0   0.0
    170725 F51  0.1-  0.2-    180406 C47  0.3-  0.1-    180419 246  0.9+  0.8+
    170818 F51  0.0   0.1-    180406 K38  0.1-  0.2-    180419 246  0.0   0.9+
    170818 F51  0.1-  0.3-    180406 198  0.3-  0.1+    180421 I52  0.3-  1.0+
    170818 F51  0.1-  0.2+    180406 C47  0.2-  0.1+    180421 I52  0.6-  0.0
    170916 F51  0.0   0.3+    180406 198  0.3-  0.0     180421 I52  0.8+  0.4+
    170916 F51  0.0   0.1-    180406 C47  0.1-  0.1+    180421 I52  0.7+  0.2-
    170923 F51  0.0   0.1+    180406 198  0.1-  0.2+    180422 I41  0.1-  0.5-
    170923 F51  0.2+  0.2+    180406 198  0.1+  0.1-    180422 I41  0.2-  0.6-
    170923 F51  0.1+  0.1+    180406 A17  0.2+  0.1+    180422 I41  0.2-  1.0-
    170923 F51  0.0   0.1-    180406 K38  0.0   0.3+    180422 I41  0.4-  0.5-
    170923 F51  0.1+  0.5-    180406 A17  0.2+  0.1+    180425 I52  0.4-  0.4-
    170926 F51  0.3-  0.0     180406 K65  0.0   0.2+    180425 I52  0.3+  0.3+
    170926 F51  0.1-  0.3-    180406 J95  0.3+  0.0     180425 I52  0.2-  0.2-
    180405 703  0.3+  0.9-    180406 434  0.4-  0.4-    180427 I52  0.4-  0.5+
    180405 703  0.0   0.6-    180406 J95  0.4-  0.0     180427 I52  0.1+  0.0
    180405 703  0.5+  0.0     180406 434  0.1+  0.2+    180427 I52  0.5-  0.4-
    180405 I52  0.4-  0.2+    180406 J95  0.2+  0.0     180427 I52  1.2-  1.1-
    180405 I52  0.2-  0.1-    180406 A17  0.0   0.0     180504 291  0.2-  0.2+
    180405 I52  0.1-  0.2-    180406 434  0.1+  0.0     180504 291  0.2+  0.5+
    180405 I52  0.2+  0.0     180406 K38  0.4+  0.2-    180504 291  0.2+  0.4+
    180405 I52  0.1-  0.3-    180406 K65  0.1+  0.1-    180506 691  0.1+  0.3-
    180405 I52  0.1-  0.1+    180406 K65  0.1-  0.3-    180506 691  0.1-  0.3+
    180405 I52  0.3+  0.1-    180406 595  0.4-  0.7+    180506 691  0.1+  0.1+
    180405 I52  0.1-  0.3+    180406 595  0.4+  0.0     180507 711  0.3+  0.1+
    180405 104  0.7+  0.3-    180406 595  0.1+  0.3+    180507 711  0.2+  0.0
    180405 104  0.3+  0.4+    180407 L01  0.2-  0.2+    180507 711  0.2+  0.2+
    180405 104  0.2-  0.1+    180407 L01  0.1-  0.1-    180507 G96  0.2-  0.1-
    180405 C77  0.1-  0.3+    180407 L01  0.1-  0.1+    180507 G96  0.6-  0.0
    180405 C77  0.7-  0.9+    180407 L01  0.1-  0.4-    180507 G96  0.0   0.1+
    180405 C77  0.7-  0.2+    180407 L01  0.2+  0.0     180507 G96  1.1-  0.5+
    180405 K63  0.6+  0.9-    180407 L01  0.0   0.2+    180507 691  0.2+  0.0
    180405 K63  0.1-  0.1+    180407 L01  0.1-  0.3+    180507 691  0.7+  0.3+
    180405 K63  0.4-  0.6-    180407 K87  0.4+  0.0     180507 691  0.1+  0.2+
    180405 J95  0.2+  0.4-    180407 K87  0.0   0.4-    180508 I52  0.0   0.2+
    180405 J95  0.1-  0.1-    180407 K87  0.1-  0.2+    180508 I52  0.2-  0.5-
    180405 J95  0.0   0.0     180408 I52  0.7+  0.4-    180508 I52  0.1-  0.3-
    180406 L01  0.4+  0.5-    180408 I52  0.3-  0.3+    180508 I52  1.0+  0.0
    180406 L01  0.6+  0.9+    180408 I52  0.1+  0.1-    180509 I52  0.1+  0.1-
    180406 K87  0.3+  0.0     180408 I52  0.3-  0.1+    180509 I52  0.1-  0.1-
    180406 K38  0.2+  0.2+    180408 K61  0.1-  0.1-    180509 I52  0.2+  0.0
    180406 K87  0.6+  0.2-    180408 K61  0.2+  0.4-    180509 I52  0.1+  0.0
    180406 K38  0.6-  0.2-    180408 K61  0.2+  0.3-    180510 I52  0.1+  0.0
    180406 L01  0.4-  0.8+    180409 I52  0.1+  0.1+    180510 I52  0.1-  0.3-
    180406 K87  0.1+  0.4+    180409 I52  0.1+  0.5-    180510 I52  0.1+  1.1-
    180406 L01  0.0   0.4+    180409 I52  0.2+  0.6-    180510 I52  0.1+  0.8-
    180406 L01  0.1+  0.0     180409 703  0.0   0.7-    180513 I52  0.4+  0.4-
    180406 L01  0.1-  0.2-    180409 703  0.2+  0.3-    180513 I52  0.0   0.1+
    180406 K87  0.3+  0.2+    180409 703  0.5-  0.8-    180513 I52  0.5+  0.5+
    180406 K38  0.3+  0.5-    180411 I52  0.0   0.4-    180513 I52  0.1+  0.2+
    180406 W34  0.5-  0.0     180411 I52  0.1-  0.0     180514 H21  0.3+  0.4+
    180406 K87  0.3-  0.2+    180411 I52  0.1-  0.0     180514 H21  0.1+  0.5+
    180406 K87  0.3+  0.2-    180411 I52  0.1-  0.1+    180514 H21  0.0   0.2+
    180406 W34  0.1+  0.6+    180414 246  0.3+  1.3+    180516 691  0.4-  0.1+
    180406 K87  0.3-  0.1+    180414 246  0.3-  0.1-    180516 691  0.1+  0.0
    180406 W34  1.1-  0.9+    180414 246  1.7-  0.4+    180516 691  0.2+  0.1+
    180406 I52  0.1+  0.0     180414 246  0.9+  0.2-    180518 691  0.3+  0.0
    180406 I52  0.1-  0.0     180415 703  0.9-  0.4+    180518 691  0.2+  0.3+
    180406 I52  0.2-  0.0     180415 703  0.2+  0.2+    180518 691  0.1+  0.6+
    180406 I52  0.1+  0.1-    180415 I52  0.3+  0.0     180520 691  0.4+  0.4+
    180406 K61  0.1-  0.5-    180415 703  0.4-  0.0     180520 691  0.3-  0.2+
    180406 K61  0.1-  0.2-    180415 I52  0.0   0.2-    180520 691  0.0   0.0
    180406 K61  0.1-  0.2-    180415 I52  0.3+  0.0     180602 H21  0.2+  0.3+
    180406 K61  0.0   0.1-    180415 I52  0.1-  0.4-    180602 H21  0.1-  0.1-
    180406 K61  0.1-  0.1-    180416 A17  0.1+  0.0     180602 H21  0.1+  0.3+
    180406 113  0.6-  0.9-    180417 A17  0.1-  0.1-    180603 291  0.5-  0.2+
    180406 113  0.2-  0.2+    180417 A17  0.1-  0.1+    180603 291  0.1+  0.1+
    180406 113  0.1-  1.1-    180417 204  0.1-  0.0     180604 H21  0.6+  0.1+
    180406 113  0.1-  0.6-    180417 204  0.0   0.1-    180604 H21  0.3+  0.3-
    180406 C43  0.1-  0.1-    180417 204  0.1-  0.2+    180604 H21  0.2+  0.4-
    180406 C43  0.5-  0.2-    180417 246  0.1-  0.2-    180607 H21  0.6-  0.2+
    180406 C43  0.1+  0.3+    180417 246  0.3+  0.2-    180607 H21  0.1-  0.2-
    180406 C43  0.1+  0.6+    180417 246  0.9+  0.1+    180607 H21  0.3-  0.1-
    180406 C43  0.5+  0.4+    180417 246  1.0+  0.3+    180702 695  0.6+  0.2+
    180406 587  0.5-  0.5+    180417 246  0.1-  0.3-    180702 695  0.0   0.2+
    180406 587  0.2-  0.4+    180417 246  0.0   0.3+    180702 695  0.1+  0.3+
    180406 151  0.6+  0.6+    180418 G96  0.1-  0.2-
    
    Ephemeris:
    2018 GL                  a,e,i = 1.69, 0.56, 12                  q = 0.7355
    Date    TT    R. A. (2000) Decl.     Delta      r    Elong.  Phase     V
    2019 06 19    21 56 29.7 -09 35 22   1.8783  2.5348   119.2    20.5    24.9
    ...
    2019 07 04    21 52 25.6 -10 26 41   1.6747  2.4974   134.8    16.8    24.5
    ...
    2019 07 12    21 47 20.9 -11 13 41   1.5806  2.4751   143.8    14.0    24.3
    ...
    2019 07 18    21 42 10.6 -11 57 57   1.5185  2.4574   151.0    11.6    24.1
    2019 07 19    21 41 12.2 -12 06 03   1.5090  2.4543   152.2    11.1    24.0
    2019 07 20    21 40 11.9 -12 14 20   1.4997  2.4512   153.5    10.7    24.0
    ...
    2019 07 26    21 33 32.3 -13 07 55   1.4491  2.4322   161.0     7.8    23.8
    ...
    2019 08 03    21 23 10.3 -14 27 51   1.3969  2.4053   171.5     3.6    23.5
    ...
    2019 08 18    21 01 06.6 -17 08 34   1.3501  2.3503   168.2     5.0    23.4
    
    A. U. Tomatic                (C) Copyright 2019 MPC           M.P.E.C. 2019-O31
    


    Read MPEC 2019-O30 Read MPEC 2019-O32


    MPEC number:

    Enter an MPEC number in one of the following forms:

    • 1997-B01 (the full form)
    • J97B01 (the packed version of the full form)
    • B01 (the abbreviated form)